Saint-Nazaire, France

8:12 AM CEST on September 25, 2016 (GMT +0200)
Montoir

Weather History for LFRZ - May, 2014

Change the Weather History Date:

Friday, May 2, 2014

  Actual Average Record
Temperature  
Mean Temperature 57 °F -  
Max Temperature 64 °F 61 °F 78 °F (1997)
Min Temperature 50 °F 47 °F 42 °F (2004)
Degree Days  
Heating Degree Days 8    
Growing Degree Days 7 (Base 50)    
Moisture  
Dew Point 50 °F    
Average Humidity 77    
Maximum Humidity 88    
Minimum Humidity 52    
Precipitation  
Precipitation 0.00 in - - ()
Sea Level Pressure  
Sea Level Pressure 30.13 in    
Wind  
Wind Speed 10 mph ()    
Max Wind Speed 15 mph    
Max Gust Speed -    
Visibility 6.9 miles    
Events      
Averages and records for this station are not official NWS values.
T = Trace of Precipitation, MM = Missing Value Source: Averaged Metar Reports

Daily Weather History Graph

Daily Weather History Graph

Search for Another Location

Airport or City:

Trip Planner

Search our weather history database for the weather conditions in past years. The results will help you decide how hot, cold, wet, or windy it might be!

Date:

Astronomy

May. 02, 2014 Rise Set
Actual Time 6:51 AM CEST 9:21 PM CEST
Civil Twilight 6:16 AM CEST 9:55 PM CEST
Nautical Twilight 5:33 AM CEST 10:38 PM CEST
Astronomical Twilight 4:44 AM CEST 11:28 PM CEST
Moon 9:11 AM CEST (5/2) No Moon Set
Length of Visible Light 15h 38m
Length of Day
14h 30m
Waxing Crescent, 11% of the Moon is Illuminated
May 2
Waxing Crescent
May 7
First Quarter
May 14
Full
May 21
Last Quarter
May 28
New

Hourly Weather History & Observations

Time (CEST) Temp. Dew Point Humidity Pressure Visibility Wind Dir Wind Speed Gust Speed Precip Events Conditions
12:00 AM 53 °F 49 °F 84% 30.04 in 37 mi WNW 11.5 mph - -   Clear
12:00 AM 53.6 °F 50.0 °F 88% 30.04 in 6.2 mi WNW 11.5 mph - N/A   Unknown
12:30 AM 53.6 °F 50.0 °F 88% 30.04 in 6.2 mi WNW 15.0 mph - N/A   Unknown
1:00 AM 53 °F 49 °F 82% 30.05 in 37 mi WNW 12.7 mph - -   Clear
1:00 AM 53.6 °F 48.2 °F 82% 30.04 in 6.2 mi WNW 12.7 mph - N/A   Overcast
1:30 AM 53.6 °F 48.2 °F 82% 30.04 in 6.2 mi WNW 10.4 mph - N/A   Overcast
2:00 AM 53 °F 48 °F 79% 30.05 in 37 mi WNW 10.4 mph - -   Clear
2:00 AM 51.8 °F 48.2 °F 88% 30.04 in 6.2 mi WNW 9.2 mph - N/A   Unknown
2:30 AM 53.6 °F 48.2 °F 82% 30.04 in 6.2 mi WNW 10.4 mph - N/A   Unknown
3:00 AM 53 °F 48 °F 77% 30.05 in 37 mi WNW 12.7 mph - -   Clear
3:00 AM 53.6 °F 48.2 °F 82% 30.04 in 6.2 mi WNW 11.5 mph - N/A   Overcast
3:30 AM 53.6 °F 48.2 °F 82% 30.04 in 6.2 mi WNW 12.7 mph - N/A   Overcast
4:00 AM 53 °F 48 °F 78% 30.06 in 37 mi WNW 12.7 mph - -   Clear
4:00 AM 53.6 °F 48.2 °F 82% 30.04 in 6.2 mi WNW 12.7 mph - N/A   Overcast
4:30 AM 51.8 °F 48.2 °F 88% 30.04 in 6.2 mi WNW 12.7 mph - N/A   Overcast
5:00 AM 52 °F 48 °F 80% 30.06 in 37 mi WNW 10.4 mph - -   Clear
5:00 AM 51.8 °F 48.2 °F 88% 30.04 in 6.2 mi WNW 10.4 mph - N/A   Overcast
5:30 AM 51.8 °F 48.2 °F 88% 30.04 in 6.2 mi WNW 11.5 mph - N/A   Unknown
6:00 AM 51 °F 48 °F 84% 30.07 in 34 mi WNW 11.5 mph - -   Clear
6:00 AM 51.8 °F 48.2 °F 88% 30.06 in 6.2 mi WNW 11.5 mph - N/A   Unknown
6:30 AM 51.8 °F 48.2 °F 88% 30.06 in 6.2 mi WNW 12.7 mph - N/A   Unknown
7:00 AM 52 °F 48 °F 82% 30.09 in 37 mi WNW 11.5 mph - -   Clear
7:00 AM 51.8 °F 48.2 °F 88% 30.06 in 6.2 mi WNW 11.5 mph - N/A   Overcast
7:30 AM 51.8 °F 48.2 °F 88% 30.06 in 6.2 mi WNW 11.5 mph - N/A   Overcast
8:00 AM 52 °F 49 °F 84% 30.10 in 37 mi WNW 10.4 mph - -   Clear
8:00 AM 51.8 °F 48.2 °F 88% 30.09 in 6.2 mi WNW 10.4 mph - N/A   Overcast
8:30 AM 51.8 °F 48.2 °F 88% 30.09 in 6.2 mi WNW 12.7 mph - N/A   Overcast
9:00 AM 53 °F 49 °F 82% 30.12 in 31 mi WNW 10.4 mph - -   Clear
9:00 AM 53.6 °F 50.0 °F 88% 30.09 in 6.2 mi WNW 10.4 mph - N/A   Overcast
9:30 AM 53.6 °F 50.0 °F 88% 30.09 in 6.2 mi WNW 10.4 mph - N/A   Overcast
10:00 AM 55 °F 50 °F 79% 30.13 in 37 mi NW 8.1 mph - -   Clear
10:00 AM 55.4 °F 50.0 °F 82% 30.12 in 6.2 mi NNW 8.1 mph - N/A   Overcast
10:30 AM 55.4 °F 50.0 °F 82% 30.12 in 6.2 mi North 10.4 mph - N/A   Overcast
11:00 AM 57 °F 51 °F 73% 30.14 in 31 mi NNW 9.2 mph - -   Clear
11:00 AM 57.2 °F 50.0 °F 77% 30.12 in 6.2 mi NNW 9.2 mph - N/A   Overcast
11:30 AM 57.2 °F 51.8 °F 82% 30.15 in 6.2 mi NNW 9.2 mph - N/A   Overcast
12:00 PM 58 °F 52 °F 76% 30.17 in 12 mi North 10.4 mph - -   Clear
12:00 PM 59.0 °F 51.8 °F 77% 30.15 in 6.2 mi North 10.4 mph - N/A   Overcast
12:30 PM 59.0 °F 51.8 °F 77% 30.15 in 6.2 mi NNW 9.2 mph - N/A   Overcast
1:00 PM 62 °F 54 °F 67% 30.17 in 12 mi North 10.4 mph - -   Clear
1:00 PM 62.6 °F 55.4 °F 77% 30.15 in 6.2 mi North 9.2 mph - N/A   Overcast
1:30 PM 60.8 °F 53.6 °F 77% 30.15 in 6.2 mi North 10.4 mph - N/A   Mostly Cloudy
2:00 PM 62 °F 53 °F 63% 30.17 in 11 mi North 9.2 mph - -   Clear
2:00 PM 62.6 °F 53.6 °F 72% 30.15 in 6.2 mi North 9.2 mph - N/A   Overcast
2:30 PM 64.4 °F 53.6 °F 68% 30.15 in 6.2 mi North 10.4 mph - N/A   Mostly Cloudy
3:00 PM 62 °F 52 °F 61% 30.18 in 22 mi North 10.4 mph - -   Clear
3:00 PM 62.6 °F 51.8 °F 68% 30.15 in 6.2 mi North 10.4 mph - N/A   Overcast
3:30 PM 62.6 °F 51.8 °F 68% 30.18 in 6.2 mi North 11.5 mph - N/A   Overcast
4:00 PM 61 °F 52 °F 65% 30.19 in 10 mi North 9.2 mph - -   Clear
4:00 PM 60.8 °F 51.8 °F 72% 30.18 in 6.2 mi North 9.2 mph - N/A   Mostly Cloudy
4:30 PM 64.4 °F 55.4 °F 73% 30.18 in 6.2 mi North 10.4 mph - N/A   Mostly Cloudy
5:00 PM 61 °F 51 °F 62% 30.19 in 12 mi North 11.5 mph - -   Clear
5:00 PM 60.8 °F 50.0 °F 68% 30.18 in 6.2 mi NNE 11.5 mph - N/A   Overcast
5:30 PM 62.6 °F 51.8 °F 68% 30.18 in 6.2 mi NNE 8.1 mph - N/A   Overcast
6:00 PM 63 °F 50 °F 54% 30.19 in 12 mi North 12.7 mph - -   Clear
6:00 PM 62.6 °F 51.8 °F 68% 30.18 in 6.2 mi North 12.7 mph - N/A   Mostly Cloudy
6:30 PM 62.6 °F 50.0 °F 63% 30.18 in 6.2 mi North 12.7 mph - N/A   Scattered Clouds
7:00 PM 62 °F 50 °F 56% 30.21 in 12 mi North 12.7 mph - -   Clear
7:00 PM 62.6 °F 50.0 °F 63% 30.18 in 6.2 mi North 12.7 mph - N/A   Partly Cloudy
7:30 PM 60.8 °F 50.0 °F 68% 30.21 in 6.2 mi North 11.5 mph - N/A   Unknown
8:00 PM 61 °F 48 °F 52% 30.22 in 34 mi North 11.5 mph - -   Clear
8:00 PM 60.8 °F 48.2 °F 63% 30.21 in 6.2 mi North 11.5 mph - N/A   Unknown
8:30 PM 59.0 °F 48.2 °F 67% 30.21 in 6.2 mi North 12.7 mph - N/A   Partly Cloudy
9:00 PM 57 °F 48 °F 65% 30.24 in 22 mi North 11.5 mph - -   Clear
9:00 PM 57.2 °F 48.2 °F 72% 30.21 in 6.2 mi North 10.4 mph - N/A   Unknown
9:30 PM 55.4 °F 48.2 °F 77% 30.24 in 6.2 mi North 6.9 mph - N/A   Unknown
10:00 PM 54 °F 48 °F 74% 30.26 in 22 mi North 8.1 mph - -   Clear
10:00 PM 53.6 °F 48.2 °F 82% 30.24 in 6.2 mi North 9.2 mph - N/A   Unknown
10:30 PM 53.6 °F 46.4 °F 77% 30.27 in 6.2 mi North 9.2 mph - N/A   Unknown
11:00 PM 52 °F 47 °F 76% 30.29 in 22 mi North 8.1 mph - -   Clear
11:00 PM 51.8 °F 46.4 °F 82% 30.27 in 6.2 mi North 8.1 mph - N/A   Unknown
11:30 PM 51.8 °F 46.4 °F 82% 30.27 in 6.2 mi NNE 5.8 mph - N/A   Partly Cloudy